DW1437 Weather Reports


time (UTC)temp
C
wind
direction
speed
KPH
gust
KPH
rain 1hr
cm
rain 24hr
cm
rain mn
cm
humidity
%
barometer
mb
20260831052843 11 227 0.0 3.2 0.00 2.18 0.08 97 1006.2
20260831050735 12 227 0.0 3.2 0.00 2.18 0.08 96 1005.8
20260831044700 12 227 0.0 1.6 0.00 2.16 0.08 97 1005.5
20260831043638 12 226 0.0 0.0 0.00 2.16 0.08 96 1005.4
20260831042634 12 226 0.0 3.2 0.00 2.16 0.08 96 1005.3
20260831041634 12 224 0.0 0.0 0.00 2.16 0.08 96 1005.3
20260831035555 12 224 0.0 0.0 0.00 2.16 0.08 96 1005.2
20260831034541 12 224 1.6 3.2 0.00 2.16 0.08 96 1005.2
20260831033538 11 224 0.0 3.2 0.00 2.16 0.08 96 1005.0
20260831032520 11 224 0.0 0.0 0.00 2.16 0.08 95 1005.0
20260831031458 11 224 0.0 0.0 0.00 2.16 0.08 96 1004.9
20260831030511 12 224 1.6 4.8 0.00 2.16 0.08 96 1004.8
20260831025505 11 224 0.0 4.8 0.00 2.16 0.08 96 1004.8
20260831024503 12 223 0.0 0.0 0.00 2.16 0.08 96 1004.6
20260831023506 12 223 0.0 3.2 0.00 2.16 0.08 96 1004.6
20260831022444 12 278 0.0 3.2 0.00 2.16 0.08 96 1004.5
20260831021423 12 278 0.0 0.0 0.00 2.16 0.08 96 1004.3
20260831020357 12 278 0.0 0.0 0.00 2.16 0.08 96 1004.1
20260831015325 12 278 0.0 0.0 0.00 2.16 0.08 96 1004.2
20260831014321 12 278 0.0 0.0 0.00 2.16 0.08 96 1004.2
20260831013343 12 278 0.0 0.0 0.00 2.16 0.08 96 1004.1
20260831012353 12 278 0.0 0.0 0.00 2.16 0.08 96 1004.1
20260831011411 12 278 0.0 0.0 0.00 2.16 0.08 96 1003.9
20260831010359 12 283 0.0 0.0 0.00 2.16 0.08 96 1003.8
20260831005336 12 302 0.0 0.0 0.00 2.16 0.08 96 1003.7
20260831004303 12 302 0.0 0.0 0.00 2.16 0.08 96 1003.4
20260831003232 12 302 0.0 0.0 0.00 2.16 0.08 96 1003.3
20260831002237 12 302 0.0 0.0 0.00 2.16 0.08 95 1003.4
20260831001259 12 302 0.0 0.0 0.00 2.16 0.08 95 1003.4
20260831000314 12 302 0.0 0.0 0.00 2.16 0.05 95 1003.4
20260830234124 12 302 0.0 0.0 0.00 2.13 0.03 95 1003.1
20260830233142 12 302 0.0 0.0 0.00 2.13 0.03 95 1003.2
20260830232139 12 302 0.0 0.0 0.08 2.13 0.03 95 1003.4
20260830231140 12 302 0.0 0.0 0.10 2.08 0.00 95 1003.1
20260830230112 12 275 0.0 0.0 0.61 2.08 0.00 95 1003.4
20260830225042 12 276 0.0 1.6 0.48 2.01 2.01 94 1003.5
20260830224028 13 276 3.2 12.9 2.11 1.78 1.80 94 1003.7
20260830223025 14 298 1.6 11.3 0.18 1.40 1.40 94 1003.4
20260830220859 15 277 0.0 0.0 0.30 1.37 1.37 95 1003.1
20260830215843 14 277 0.0 0.0 0.00 1.30 1.30 95 1003.3
20260830214906 14 277 0.0 0.0 0.00 1.30 1.30 95 1003.3
20260830213908 14 277 0.0 0.0 0.00 1.30 1.30 95 1003.4
20260830212915 14 277 0.0 0.0 0.00 1.30 1.30 95 1003.3
20260830211854 14 277 0.0 0.0 0.00 1.30 1.30 95 1003.4
20260830210844 14 277 0.0 0.0 0.00 1.30 1.30 95 1003.4
20260830204716 14 14 0.0 0.0 0.00 1.30 1.30 94 1003.3
20260830203722 14 15 0.0 0.0 0.00 1.30 1.30 94 1003.4
20260830202743 15 263 0.0 4.8 0.00 1.30 1.30 94 1003.5
20260830201747 15 313 0.0 0.0 0.00 1.30 1.30 94 1003.5
20260830200803 15 295 0.0 1.6 0.00 1.40 1.30 94 1003.5
20260830195802 15 192 1.6 8.0 0.00 1.42 1.30 94 1003.5
20260830194755 15 310 0.0 3.2 0.00 1.45 1.30 94 1003.4
20260830192610 15 276 0.0 0.0 0.28 1.45 1.30 94 1003.3
20260830191607 15 351 0.0 4.8 0.25 1.40 1.24 94 1003.3
20260830190532 16 259 0.0 9.7 0.18 1.35 1.19 93 1003.3
20260830185520 16 229 1.6 9.7 0.30 1.30 1.14 93 1003.3
20260830175954 16 59 0.0 3.2 0.08 0.91 0.74 93 1004.1
20260830174953 16 153 0.0 0.0 0.00 0.91 0.74 93 1003.9
20260830173935 16 153 0.0 0.0 0.00 0.89 0.74 92 1004.0
20260830171756 17 165 0.0 0.0 0.00 0.89 0.74 93 1004.2
20260830165653 17 215 0.0 3.2 0.00 0.89 0.74 92 1004.4
20260830164648 17 290 0.0 6.4 0.00 0.89 0.74 92 1004.4
20260830162459 17 234 0.0 0.0 0.00 0.89 0.74 92 1004.7
20260830161521 17 234 0.0 0.0 0.00 0.89 0.74 91 1004.7
20260830160533 17 234 0.0 0.0 0.10 0.89 0.74 90 1004.8
20260830155529 17 234 0.0 0.0 2.54 0.79 0.69 90 1005.0
20260830153354 17 220 0.0 0.0 0.08 0.61 0.46 87 1005.0
20260830151210 19 314 3.2 14.5 2.06 0.36 0.23 81 1005.1
20260830150208 19 181 1.6 9.7 0.00 0.18 0.03 78 1004.6
20260830145204 20 349 1.6 12.9 0.00 0.18 0.03 78 1004.6
20260830144215 20 321 3.2 12.9 0.00 0.18 0.03 79 1004.8
20260830143210 20 221 3.2 11.3 0.00 0.18 0.03 80 1005.0
20260830142232 19 111 1.6 14.5 0.00 0.18 0.03 81 1005.1
20260830141158 19 15 1.6 16.1 0.00 0.18 0.03 82 1005.5
20260830140136 19 328 1.6 16.1 0.00 0.18 0.03 83 1005.5
20260830134025 18 106 0.0 12.9 0.00 0.18 0.03 85 1005.7
20260830133039 18 12 1.6 12.9 0.00 0.18 0.03 85 1005.8
20260830132055 18 255 3.2 11.3 0.00 0.18 0.03 84 1006.1
20260830131044 18 218 8.0 17.7 0.00 0.18 0.00 79 1006.4
20260830130017 20 290 4.8 17.7 0.00 0.18 0.00 71 1006.1
20260830125028 20 221 4.8 17.7 0.00 0.20 0.00 70 1006.0
20260830124033 21 210 4.8 17.7 0.00 0.25 0.00 68 1005.9
20260830123024 21 158 4.8 16.1 0.00 0.28 0.00 70 1005.9
20260830122018 20 226 6.4 16.1 0.00 0.28 0.00 74 1006.0
20260830115823 19 242 3.2 14.5 0.00 0.28 0.00 78 1006.3
20260830114825 19 215 8.0 14.5 0.00 0.28 0.00 76 1006.4
20260830113757 20 309 4.8 17.7 0.00 0.28 0.00 78 1006.4
20260830112816 20 294 4.8 20.9 0.00 0.28 0.00 74 1006.7
20260830111747 20 267 8.0 20.9 0.00 0.28 0.00 73 1006.6
20260830110746 21 321 3.2 11.3 0.00 0.28 0.00 73 1006.6
20260830105749 21 310 3.2 12.9 0.00 0.28 0.00 74 1006.8
20260830104751 20 165 3.2 14.5 0.00 0.28 0.00 75 1006.9
20260830103720 20 92 4.8 14.5 0.00 0.28 0.00 78 1007.0
20260830102647 19 112 4.8 14.5 0.00 0.28 0.00 80 1007.2
20260830101627 18 273 4.8 14.5 0.00 0.28 0.00 83 1007.3
20260830095444 18 221 3.2 14.5 0.00 0.28 0.00 86 1007.5
20260830094500 18 78 1.6 12.9 0.00 0.28 0.00 87 1007.5
20260830093435 17 133 1.6 12.9 0.00 0.28 0.00 88 1007.6
20260830092403 17 183 1.6 11.3 0.00 0.30 0.00 90 1007.6
20260830091351 17 273 1.6 9.7 0.00 0.30 0.00 90 1007.7
20260830090323 17 321 1.6 9.7 0.00 0.33 0.00 92 1007.7
20260830085343 17 36 1.6 6.4 0.00 0.33 0.00 93 1007.8
20260830084333 17 306 1.6 1.6 0.00 0.38 0.00 94 1007.8
20260830083312 16 275 1.6 8.0 0.00 0.48 0.00 95 1007.8
20260830082240 16 237 0.0 8.0 0.00 0.51 0.00 96 1007.8
20260830081235 16 134 3.2 9.7 0.00 0.56 0.00 96 1007.9
20260830080258 16 189 0.0 9.7 0.00 0.58 0.00 96 1007.8
20260830075232 15 273 0.0 4.8 0.00 0.61 0.00 96 1007.8
20260830074212 15 85 0.0 1.6 0.00 0.64 0.00 96 1007.8
20260830073205 15 229 0.0 4.8 0.00 0.66 0.00 96 1008.0
20260830072156 15 155 0.0 0.0 0.00 0.66 0.00 96 1008.0
20260830071208 14 263 0.0 0.0 0.00 0.66 0.00 96 1007.8
20260830070211 14 264 0.0 0.0 0.00 0.69 0.00 96 1007.8
20260830065149 13 46 0.0 0.0 0.00 0.69 0.00 96 1007.8
20260830064210 13 46 0.0 0.0 0.00 0.71 0.00 96 1007.7
20260830063232 13 46 0.0 0.0 0.00 0.71 0.00 96 1007.8
20260830062207 13 44 0.0 0.0 0.00 0.74 0.00 96 1007.7
20260830061153 13 44 0.0 0.0 0.00 0.74 0.00 95 1007.6